User: anonymous   Login
Location: Byszew
(52.1813°N, 19.2693°E)
Time: 15:32:50
(UTC+00:00)
Language:

CZ-4 R/B - Orbit

View from above orbital plane
View from above orbital plane
View from above satellite
View from above satellite

Ground track
Ground track

The orbit data is extracted from the following two-line orbital elements,

1 29507U 06046C   21125.82176019  .00001144  00000-0  92860-4 0  9993
2 29507  97.7318 151.9323 0047678 158.0738 202.2541 15.00819921793717
Epoch (UTC): 05 May 2021 19:43:20
Eccentricity: 0.0047678
inclination: 97.7318°
perigee height: 531 km
apogee height: 597 km
right ascension of ascending node: 151.9323°
argument of perigee: 158.0738°
revolutions per day: 15.00819921
mean anomaly at epoch: 202.2541°
orbit number at epoch: 79371

The dashed part of the orbit path shows where the satellite is in the earth's shadow,  

DLR